START_TIME,STEP,MOV.,M35,t_acc.,PL05,t_acc.,PL06,t_acc.,PL07,t_acc.
1979-07-21 15:00:23.590 ,1,0,0.,4.8,2.,4.8,0.,4.8,4.,4.8
1979-07-21 15:00:28.390 ,1,0,0.,4.8,2.,4.8,2.,4.8,0.,4.8
1979-07-21 15:00:33.190 ,1,0,0.,4.8,5.,4.8,3.,4.8,0.,4.8
1979-07-21 15:00:37.990 ,1,0,0.,4.8,2.,4.8,1.,4.8,2.,4.8
1979-07-21 15:00:42.790 ,1,0,0.,4.8,0.,4.8,4.,4.8,0.,4.8
1979-07-21 15:00:47.590 ,2,0,0.,4.8,7.,4.8,2.,4.8,0.,4.8
1979-07-21 15:00:52.390 ,2,0,0.,4.8,2.,4.8,2.,4.8,3.,4.8
1979-07-21 15:00:57.190 ,2,0,0.,4.8,6.,4.8,1.,4.8,0.,4.8
1979-07-21 15:01:01.990 ,2,0,0.,4.8,3.,4.8,0.,4.8,1.,4.8
1979-07-21 15:01:06.790 ,2,0,0.,4.8,3.,4.8,3.,4.8,1.,4.8
1979-07-21 15:01:11.590 ,2,0,0.,4.8,3.,4.8,0.,4.8,1.,4.8
1979-07-21 15:01:16.390 ,2,0,0.,4.8,4.,4.8,0.,4.8,1.,4.8
1979-07-21 15:01:21.190 ,2,0,0.,4.8,1.,4.8,2.,4.8,1.,4.8
1979-07-21 15:01:25.990 ,2,0,0.,4.8,3.,4.8,4.,4.8,3.,4.8
1979-07-21 15:01:30.790 ,2,0,0.,4.8,5.,4.8,3.,4.8,0.,4.8
1979-07-21 15:01:35.590 ,3,0,0.,4.8,4.,4.8,3.,4.8,1.,4.8
1979-07-21 15:01:40.390 ,3,0,0.,4.8,1.,4.8,0.,4.8,3.,4.8
1979-07-21 15:01:45.190 ,3,0,0.,4.8,4.,4.8,1.,4.8,0.,4.8
1979-07-21 15:01:49.990 ,3,0,0.,4.8,2.,4.8,3.,4.8,0.,4.8
1979-07-21 15:01:54.790 ,3,0,0.,4.8,3.,4.8,0.,4.8,1.,4.8
1979-07-21 15:01:59.590 ,3,0,0.,4.8,3.,4.8,5.,4.8,0.,4.8
1979-07-21 15:02:04.390 ,3,0,0.,4.8,4.,4.8,0.,4.8,2.,4.8
1979-07-21 15:02:09.190 ,3,0,0.,4.8,6.,4.8,3.,4.8,1.,4.8
1979-07-21 15:02:13.990 ,3,0,0.,4.8,4.,4.8,3.,4.8,2.,4.8
1979-07-21 15:02:18.790 ,3,0,0.,4.8,2.,4.8,3.,4.8,1.,4.8
1979-07-21 15:02:23.590 ,4,0,0.,4.8,1.,4.8,4.,4.8,0.,4.8
1979-07-21 15:02:28.390 ,4,0,0.,4.8,4.,4.8,1.,4.8,0.,4.8
1979-07-21 15:02:33.190 ,4,0,0.,4.8,1.,4.8,0.,4.8,1.,4.8
1979-07-21 15:02:37.990 ,4,0,0.,4.8,4.,4.8,2.,4.8,1.,4.8
1979-07-21 15:02:42.790 ,4,0,0.,4.8,3.,4.8,2.,4.8,0.,4.8
1979-07-21 15:02:47.590 ,4,0,0.,4.8,1.,4.8,2.,4.8,0.,4.8
1979-07-21 15:02:52.390 ,4,0,0.,4.8,0.,4.8,0.,4.8,2.,4.8
1979-07-21 15:02:57.190 ,4,0,0.,4.8,4.,4.8,2.,4.8,1.,4.8
1979-07-21 15:03:01.990 ,4,0,0.,4.8,3.,4.8,2.,4.8,3.,4.8
1979-07-21 15:03:06.790 ,4,0,0.,4.8,2.,4.8,4.,4.8,1.,4.8
1979-07-21 15:03:11.590 ,5,0,0.,4.8,5.,4.8,2.,4.8,4.,4.8
1979-07-21 15:03:16.390 ,5,0,0.,4.8,3.,4.8,1.,4.8,3.,4.8
1979-07-21 15:03:21.190 ,5,0,0.,4.8,2.,4.8,0.,4.8,4.,4.8
1979-07-21 15:03:25.990 ,5,0,1.,4.8,2.,4.8,1.,4.8,0.,4.8
1979-07-21 15:03:30.790 ,5,0,0.,4.8,5.,4.8,4.,4.8,1.,4.8
1979-07-21 15:03:35.590 ,5,0,0.,4.8,2.,4.8,2.,4.8,1.,4.8
1979-07-21 15:03:40.390 ,5,0,0.,4.8,3.,4.8,4.,4.8,3.,4.8
1979-07-21 15:03:45.190 ,5,0,0.,4.8,2.,4.8,3.,4.8,2.,4.8
1979-07-21 15:03:49.990 ,5,0,0.,4.8,6.,4.8,2.,4.8,1.,4.8
1979-07-21 15:03:54.790 ,5,0,0.,4.8,4.,4.8,2.,4.8,1.,4.8
1979-07-21 15:03:59.590 ,6,0,0.,4.8,2.,4.8,1.,4.8,1.,4.8
1979-07-21 15:04:04.390 ,6,0,0.,4.8,2.,4.8,2.,4.8,2.,4.8
1979-07-21 15:04:09.190 ,6,0,0.,4.8,2.,4.8,1.,4.8,2.,4.8
1979-07-21 15:04:13.990 ,6,0,0.,4.8,1.,4.8,0.,4.8,1.,4.8
1979-07-21 15:04:18.790 ,6,0,0.,4.8,1.,4.8,2.,4.8,3.,4.8
1979-07-21 15:04:23.590 ,6,0,0.,4.8,4.,4.8,2.,4.8,3.,4.8
1979-07-21 15:04:28.390 ,6,0,0.,4.8,2.,4.8,2.,4.8,1.,4.8
1979-07-21 15:04:33.190 ,6,0,0.,4.8,4.,4.8,3.,4.8,1.,4.8
1979-07-21 15:04:37.990 ,6,0,0.,4.8,3.,4.8,0.,4.8,0.,4.8
1979-07-21 15:04:42.790 ,6,0,0.,4.8,0.,4.8,2.,4.8,1.,4.8
1979-07-21 15:04:47.590 ,7,0,0.,4.8,3.,4.8,2.,4.8,1.,4.8
1979-07-21 15:04:52.390 ,7,0,0.,4.8,1.,4.8,2.,4.8,3.,4.8
1979-07-21 15:04:57.190 ,7,0,0.,4.8,0.,4.8,0.,4.8,0.,4.8
1979-07-21 15:05:01.990 ,7,0,0.,4.8,1.,4.8,0.,4.8,0.,4.8
1979-07-21 15:05:06.790 ,7,0,0.,4.8,0.,4.8,0.,4.8,0.,4.8
1979-07-21 15:05:11.590 ,7,0,0.,4.8,0.,4.8,0.,4.8,0.,4.8
1979-07-21 15:05:16.390 ,7,0,0.,4.8,0.,4.8,0.,4.8,0.,4.8
1979-07-21 15:05:21.190 ,7,0,0.,4.8,0.,4.8,0.,4.8,0.,4.8
1979-07-21 15:05:25.990 ,7,0,0.,4.8,1.,4.8,0.,4.8,0.,4.8
1979-07-21 15:05:30.790 ,7,0,0.,4.8,0.,4.8,0.,4.8,1.,4.8
1979-07-21 15:05:35.590 ,7,0,0.,4.8,0.,4.8,0.,4.8,0.,4.8
1979-07-21 15:05:40.390 ,7,0,0.,4.8,1.,4.8,0.,4.8,0.,4.8
1979-07-21 15:05:45.190 ,7,0,0.,4.8,0.,4.8,0.,4.8,0.,4.8
1979-07-21 15:05:49.990 ,7,0,0.,4.8,2.,4.8,1.,4.8,0.,4.8
1979-07-21 15:05:54.790 ,7,0,0.,4.8,0.,4.8,1.,4.8,0.,4.8
1979-07-21 15:05:59.590 ,7,0,0.,4.8,0.,4.8,0.,4.8,0.,4.8
1979-07-21 15:06:04.390 ,7,0,0.,4.8,0.,4.8,0.,4.8,0.,4.8
1979-07-21 15:06:09.190 ,7,0,0.,4.8,0.,4.8,0.,4.8,0.,4.8
1979-07-21 15:06:13.990 ,7,0,0.,4.8,0.,4.8,0.,4.8,0.,4.8
1979-07-21 15:06:18.790 ,7,0,0.,4.8,1.,4.8,0.,4.8,0.,4.8
1979-07-21 15:06:23.590 ,6,0,0.,4.8,1.,4.8,0.,4.8,0.,4.8
1979-07-21 15:06:28.390 ,6,0,0.,4.8,0.,4.8,0.,4.8,0.,4.8
1979-07-21 15:06:33.190 ,6,0,0.,4.8,3.,4.8,0.,4.8,0.,4.8
1979-07-21 15:06:37.990 ,6,0,0.,4.8,5.,4.8,4.,4.8,1.,4.8
1979-07-21 15:06:42.790 ,6,0,0.,4.8,4.,4.8,3.,4.8,0.,4.8
1979-07-21 15:06:47.590 ,6,0,0.,4.8,5.,4.8,2.,4.8,1.,4.8
1979-07-21 15:06:52.390 ,6,0,0.,4.8,4.,4.8,2.,4.8,1.,4.8
1979-07-21 15:06:57.190 ,6,0,0.,4.8,2.,4.8,1.,4.8,0.,4.8
1979-07-21 15:07:01.990 ,6,0,0.,4.8,3.,4.8,3.,4.8,0.,4.8
1979-07-21 15:07:06.790 ,6,0,0.,4.8,2.,4.8,0.,4.8,0.,4.8
1979-07-21 15:07:11.590 ,5,0,0.,4.8,3.,4.8,4.,4.8,1.,4.8
1979-07-21 15:07:16.390 ,5,0,0.,4.8,4.,4.8,1.,4.8,3.,4.8
1979-07-21 15:07:21.190 ,5,0,0.,4.8,3.,4.8,2.,4.8,0.,4.8
1979-07-21 15:07:25.990 ,5,0,0.,4.8,6.,4.8,2.,4.8,0.,4.8
1979-07-21 15:07:30.790 ,5,0,0.,4.8,0.,4.8,0.,4.8,0.,4.8
1979-07-21 15:07:35.590 ,5,0,0.,4.8,2.,4.8,1.,4.8,0.,4.8
1979-07-21 15:07:40.390 ,5,0,0.,4.8,3.,4.8,3.,4.8,0.,4.8
1979-07-21 15:07:45.190 ,5,0,0.,4.8,1.,4.8,3.,4.8,0.,4.8
1979-07-21 15:07:49.990 ,5,0,0.,4.8,4.,4.8,0.,4.8,3.,4.8
1979-07-21 15:07:54.790 ,5,0,0.,4.8,1.,4.8,6.,4.8,0.,4.8
1979-07-21 15:07:59.590 ,4,0,0.,4.8,4.,4.8,2.,4.8,1.,4.8
1979-07-21 15:08:04.390 ,4,0,0.,4.8,1.,4.8,3.,4.8,1.,4.8
1979-07-21 15:08:09.190 ,4,0,0.,4.8,0.,4.8,0.,4.8,1.,4.8
1979-07-21 15:08:13.990 ,4,0,0.,4.8,1.,4.8,1.,4.8,3.,4.8
1979-07-21 15:08:18.790 ,4,0,0.,4.8,1.,4.8,0.,4.8,1.,4.8
1979-07-21 15:08:23.590 ,4,0,0.,4.8,4.,4.8,2.,4.8,1.,4.8
1979-07-21 15:08:28.390 ,4,0,0.,4.8,5.,4.8,1.,4.8,3.,4.8
1979-07-21 15:08:33.190 ,4,0,0.,4.8,1.,4.8,1.,4.8,1.,4.8
1979-07-21 15:08:37.990 ,4,0,0.,4.8,3.,4.8,4.,4.8,2.,4.8
1979-07-21 15:08:42.790 ,4,0,0.,4.8,2.,4.8,4.,4.8,0.,4.8
1979-07-21 15:08:47.590 ,3,0,0.,4.8,1.,4.8,2.,4.8,1.,4.8
1979-07-21 15:08:52.390 ,3,0,0.,4.8,1.,4.8,0.,4.8,1.,4.8
1979-07-21 15:08:57.190 ,3,0,0.,4.8,3.,4.8,1.,4.8,1.,4.8
1979-07-21 15:09:01.990 ,3,0,0.,4.8,4.,4.8,2.,4.8,0.,4.8
1979-07-21 15:09:06.790 ,3,0,0.,4.8,4.,4.8,2.,4.8,2.,4.8
1979-07-21 15:09:11.590 ,3,0,0.,4.8,6.,4.8,2.,4.8,1.,4.8
1979-07-21 15:09:16.390 ,3,0,0.,4.8,2.,4.8,1.,4.8,1.,4.8
1979-07-21 15:09:21.190 ,3,0,0.,4.8,1.,4.8,4.,4.8,0.,4.8
1979-07-21 15:09:25.990 ,3,0,0.,4.8,0.,4.8,4.,4.8,2.,4.8
1979-07-21 15:09:30.790 ,3,0,0.,4.8,3.,4.8,0.,4.8,0.,4.8
1979-07-21 15:09:35.590 ,2,0,0.,4.8,5.,4.8,2.,4.8,1.,4.8
1979-07-21 15:09:40.390 ,2,0,0.,4.8,3.,4.8,2.,4.8,0.,4.8
1979-07-21 15:09:45.190 ,2,0,0.,4.8,3.,4.8,2.,4.8,1.,4.8
1979-07-21 15:09:49.990 ,2,0,0.,4.8,5.,4.8,0.,4.8,1.,4.8
1979-07-21 15:09:54.790 ,2,0,0.,4.8,6.,4.8,1.,4.8,1.,4.8
1979-07-21 15:09:59.590 ,2,0,0.,4.8,2.,4.8,2.,4.8,2.,4.8
1979-07-21 15:10:04.390 ,2,0,0.,4.8,9.,4.8,2.,4.8,0.,4.8
1979-07-21 15:10:09.190 ,2,0,0.,4.8,4.,4.8,2.,4.8,1.,4.8
1979-07-21 15:10:13.990 ,2,0,0.,4.8,8.,4.8,2.,4.8,0.,4.8
1979-07-21 15:10:18.790 ,2,0,0.,4.8,2.,4.8,0.,4.8,3.,4.8
1979-07-21 15:10:23.590 ,1,0,0.,4.8,3.,4.8,1.,4.8,0.,4.8
1979-07-21 15:10:28.390 ,1,0,0.,4.8,6.,4.8,0.,4.8,1.,4.8
1979-07-21 15:10:33.190 ,1,0,0.,4.8,6.,4.8,0.,4.8,0.,4.8
1979-07-21 15:10:37.990 ,1,0,0.,4.8,3.,4.8,0.,4.8,1.,4.8
1979-07-21 15:10:42.790 ,1,0,0.,4.8,4.,4.8,1.,4.8,0.,4.8
1979-07-21 15:10:47.590 ,1,0,0.,4.8,5.,4.8,3.,4.8,0.,4.8
1979-07-21 15:10:52.390 ,1,0,0.,4.8,5.,4.8,1.,4.8,0.,4.8
1979-07-21 15:10:57.190 ,1,0,0.,4.8,3.,4.8,2.,4.8,0.,4.8
1979-07-21 15:11:01.990 ,1,0,0.,4.8,3.,4.8,1.,4.8,2.,4.8
1979-07-21 15:11:06.790 ,1,0,0.,4.8,2.,4.8,2.,4.8,0.,4.8
1979-07-21 15:11:11.590 ,0,0,0.,4.8,6.,4.8,0.,4.8,0.,4.8
1979-07-21 15:11:16.390 ,0,0,0.,4.8,3.,4.8,4.,4.8,2.,4.8
1979-07-21 15:11:21.190 ,0,0,0.,4.8,6.,4.8,1.,4.8,1.,4.8
1979-07-21 15:11:25.990 ,0,0,0.,4.8,4.,4.8,1.,4.8,0.,4.8
1979-07-21 15:11:30.790 ,0,0,0.,4.8,5.,4.8,4.,4.8,3.,4.8
1979-07-21 15:11:35.590 ,0,0,0.,4.8,4.,4.8,1.,4.8,1.,4.8
1979-07-21 15:11:40.390 ,0,0,0.,4.8,6.,4.8,0.,4.8,1.,4.8
1979-07-21 15:11:45.190 ,0,0,0.,4.8,3.,4.8,3.,4.8,2.,4.8
1979-07-21 15:11:49.990 ,0,0,0.,4.8,6.,4.8,2.,4.8,0.,4.8
1979-07-21 15:11:54.790 ,0,0,0.,4.8,3.,4.8,3.,4.8,2.,4.8
1979-07-21 15:11:59.590 ,0,0,0.,4.8,4.,4.8,2.,4.8,0.,4.8
1979-07-21 15:12:04.390 ,0,0,0.,4.8,5.,4.8,2.,4.8,2.,4.8
1979-07-21 15:12:09.190 ,0,0,0.,4.8,4.,4.8,1.,4.8,0.,4.8
1979-07-21 15:12:13.990 ,0,0,0.,4.8,3.,4.8,2.,4.8,2.,4.8
1979-07-21 15:12:18.790 ,0,0,0.,4.8,3.,4.8,0.,4.8,0.,4.8
1979-07-21 15:12:23.590 ,0,0,0.,4.8,3.,4.8,2.,4.8,1.,4.8
1979-07-21 15:12:28.390 ,0,0,0.,4.8,10.,4.8,1.,4.8,2.,4.8
1979-07-21 15:12:33.190 ,0,0,0.,4.8,3.,4.8,2.,4.8,2.,4.8
1979-07-21 15:12:37.990 ,0,0,0.,4.8,6.,4.8,4.,4.8,0.,4.8
1979-07-21 15:12:42.790 ,0,0,0.,4.8,5.,4.8,1.,4.8,2.,4.8
1979-07-21 15:12:47.590 ,1,0,0.,4.8,2.,4.8,2.,4.8,1.,4.8
1979-07-21 15:12:52.390 ,1,0,0.,4.8,5.,4.8,0.,4.8,0.,4.8
1979-07-21 15:12:57.190 ,1,0,0.,4.8,4.,4.8,2.,4.8,3.,4.8
1979-07-21 15:13:01.990 ,1,0,0.,4.8,2.,4.8,1.,4.8,3.,4.8
1979-07-21 15:13:06.790 ,1,0,0.,4.8,2.,4.8,2.,4.8,2.,4.8
1979-07-21 15:13:11.590 ,1,0,0.,4.8,3.,4.8,0.,4.8,2.,4.8
1979-07-21 15:13:16.390 ,1,0,0.,4.8,4.,4.8,1.,4.8,2.,4.8
1979-07-21 15:13:21.190 ,1,0,0.,4.8,6.,4.8,0.,4.8,2.,4.8
1979-07-21 15:13:25.990 ,1,0,0.,4.8,1.,4.8,1.,4.8,2.,4.8
1979-07-21 15:13:30.790 ,1,0,0.,4.8,6.,4.8,2.,4.8,0.,4.8
1979-07-21 15:13:35.590 ,2,0,0.,4.8,5.,4.8,0.,4.8,0.,4.8
1979-07-21 15:13:40.390 ,2,0,0.,4.8,1.,4.8,0.,4.8,0.,4.8
1979-07-21 15:13:45.190 ,2,0,0.,4.8,3.,4.8,1.,4.8,1.,4.8
1979-07-21 15:13:49.990 ,2,0,0.,4.8,1.,4.8,1.,4.8,0.,4.8
1979-07-21 15:13:54.790 ,2,0,0.,4.8,5.,4.8,1.,4.8,2.,4.8
1979-07-21 15:13:59.590 ,2,0,0.,4.8,3.,4.8,3.,4.8,1.,4.8
1979-07-21 15:14:04.390 ,2,0,0.,4.8,1.,4.8,3.,4.8,2.,4.8
1979-07-21 15:14:09.190 ,2,0,0.,4.8,5.,4.8,3.,4.8,1.,4.8
1979-07-21 15:14:13.990 ,2,0,0.,4.8,1.,4.8,0.,4.8,0.,4.8
1979-07-21 15:14:18.790 ,2,0,0.,4.8,1.,4.8,1.,4.8,1.,4.8
1979-07-21 15:14:23.590 ,3,0,0.,4.8,4.,4.8,0.,4.8,0.,4.8
1979-07-21 15:14:28.390 ,3,0,0.,4.8,4.,4.8,4.,4.8,6.,4.8
1979-07-21 15:14:33.190 ,3,0,0.,4.8,1.,4.8,2.,4.8,4.,4.8
1979-07-21 15:14:37.990 ,3,0,0.,4.8,3.,4.8,0.,4.8,0.,4.8
1979-07-21 15:14:42.790 ,3,0,0.,4.8,3.,4.8,1.,4.8,2.,4.8
1979-07-21 15:14:47.590 ,3,0,0.,4.8,5.,4.8,2.,4.8,3.,4.8
1979-07-21 15:14:52.390 ,3,0,0.,4.8,4.,4.8,1.,4.8,1.,4.8
1979-07-21 15:14:57.190 ,3,0,0.,4.8,4.,4.8,2.,4.8,3.,4.8
1979-07-21 15:15:01.990 ,3,0,0.,4.8,5.,4.8,2.,4.8,1.,4.8
1979-07-21 15:15:06.790 ,3,0,0.,4.8,1.,4.8,2.,4.8,3.,4.8
1979-07-21 15:15:11.590 ,4,0,0.,4.8,4.,4.8,2.,4.8,0.,4.8
1979-07-21 15:15:16.390 ,4,0,0.,4.8,5.,4.8,0.,4.8,2.,4.8
1979-07-21 15:15:21.190 ,4,0,0.,4.8,2.,4.8,2.,4.8,1.,4.8
1979-07-21 15:15:25.990 ,4,0,0.,4.8,3.,4.8,1.,4.8,0.,4.8
1979-07-21 15:15:30.790 ,4,0,0.,4.8,4.,4.8,2.,4.8,0.,4.8
1979-07-21 15:15:35.590 ,4,0,0.,4.8,5.,4.8,0.,4.8,0.,4.8
1979-07-21 15:15:40.390 ,4,0,0.,4.8,7.,4.8,1.,4.8,0.,4.8
1979-07-21 15:15:45.190 ,4,0,0.,4.8,3.,4.8,3.,4.8,3.,4.8
1979-07-21 15:15:49.990 ,4,0,0.,4.8,1.,4.8,2.,4.8,0.,4.8
1979-07-21 15:15:54.790 ,4,0,0.,4.8,2.,4.8,4.,4.8,2.,4.8
1979-07-21 15:15:59.590 ,5,0,0.,4.8,4.,4.8,0.,4.8,4.,4.8
1979-07-21 15:16:04.390 ,5,0,0.,4.8,2.,4.8,1.,4.8,1.,4.8
1979-07-21 15:16:09.190 ,5,0,0.,4.8,4.,4.8,3.,4.8,2.,4.8
1979-07-21 15:16:13.990 ,5,0,0.,4.8,3.,4.8,4.,4.8,1.,4.8
1979-07-21 15:16:18.790 ,5,0,0.,4.8,3.,4.8,4.,4.8,0.,4.8
1979-07-21 15:16:23.590 ,5,0,0.,4.8,3.,4.8,1.,4.8,0.,4.8
1979-07-21 15:16:28.390 ,5,0,1.,4.8,4.,4.8,1.,4.8,0.,4.8
1979-07-21 15:16:33.190 ,5,0,0.,4.8,2.,4.8,3.,4.8,1.,4.8
1979-07-21 15:16:37.990 ,5,0,0.,4.8,5.,4.8,2.,4.8,0.,4.8
1979-07-21 15:16:42.790 ,5,0,0.,4.8,6.,4.8,2.,4.8,1.,4.8
1979-07-21 15:16:47.590 ,6,0,0.,4.8,5.,4.8,2.,4.8,1.,4.8
1979-07-21 15:16:52.390 ,6,0,0.,4.8,4.,4.8,0.,4.8,1.,4.8
1979-07-21 15:16:57.190 ,6,0,0.,4.8,2.,4.8,1.,4.8,0.,4.8
1979-07-21 15:17:01.990 ,6,0,0.,4.8,3.,4.8,1.,4.8,1.,4.8
1979-07-21 15:17:06.790 ,6,0,0.,4.8,4.,4.8,2.,4.8,0.,4.8
1979-07-21 15:17:11.590 ,6,0,0.,4.8,6.,4.8,1.,4.8,3.,4.8
1979-07-21 15:17:16.390 ,6,0,0.,4.8,7.,4.8,4.,4.8,2.,4.8
1979-07-21 15:17:21.190 ,6,0,0.,4.8,1.,4.8,2.,4.8,2.,4.8
1979-07-21 15:17:25.990 ,6,0,0.,4.8,2.,4.8,3.,4.8,0.,4.8
1979-07-21 15:17:30.790 ,6,0,0.,4.8,2.,4.8,3.,4.8,3.,4.8
1979-07-21 15:17:35.590 ,7,0,0.,4.8,4.,4.8,2.,4.8,0.,4.8
1979-07-21 15:17:40.390 ,7,0,0.,4.8,2.,4.8,2.,4.8,1.,4.8
1979-07-21 15:17:45.190 ,7,0,0.,4.8,1.,4.8,1.,4.8,0.,4.8
1979-07-21 15:17:49.990 ,7,0,0.,4.8,1.,4.8,0.,4.8,1.,4.8
1979-07-21 15:17:54.790 ,7,0,0.,4.8,2.,4.8,0.,4.8,0.,4.8
1979-07-21 15:17:59.590 ,7,0,0.,4.8,0.,4.8,0.,4.8,0.,4.8
1979-07-21 15:18:04.390 ,7,0,0.,4.8,0.,4.8,0.,4.8,0.,4.8
1979-07-21 15:18:09.190 ,7,0,0.,4.8,0.,4.8,0.,4.8,0.,4.8
1979-07-21 15:18:13.990 ,7,0,0.,4.8,1.,4.8,0.,4.8,0.,4.8
1979-07-21 15:18:18.790 ,7,0,0.,4.8,0.,4.8,0.,4.8,0.,4.8
1979-07-21 15:18:23.590 ,7,0,0.,4.8,1.,4.8,1.,4.8,0.,4.8
1979-07-21 15:18:28.390 ,7,0,0.,4.8,0.,4.8,0.,4.8,0.,4.8
1979-07-21 15:18:33.190 ,7,0,0.,4.8,0.,4.8,0.,4.8,1.,4.8
1979-07-21 15:18:37.990 ,7,0,0.,4.8,0.,4.8,0.,4.8,0.,4.8
1979-07-21 15:18:42.790 ,7,0,0.,4.8,0.,4.8,0.,4.8,0.,4.8
1979-07-21 15:18:47.590 ,7,0,0.,4.8,0.,4.8,0.,4.8,0.,4.8
1979-07-21 15:18:52.390 ,7,0,0.,4.8,0.,4.8,0.,4.8,0.,4.8
1979-07-21 15:18:57.190 ,7,0,0.,4.8,1.,4.8,0.,4.8,0.,4.8
1979-07-21 15:19:01.990 ,7,0,0.,4.8,0.,4.8,1.,4.8,0.,4.8
1979-07-21 15:19:06.790 ,7,0,0.,4.8,2.,4.8,0.,4.8,1.,4.8
1979-07-21 15:19:11.590 ,6,0,0.,4.8,0.,4.8,0.,4.8,0.,4.8
1979-07-21 15:19:16.390 ,6,0,0.,4.8,1.,4.8,1.,4.8,0.,4.8
1979-07-21 15:19:21.190 ,6,0,0.,4.8,9.,4.8,2.,4.8,0.,4.8
1979-07-21 15:19:25.990 ,6,0,0.,4.8,2.,4.8,4.,4.8,2.,4.8
1979-07-21 15:19:30.790 ,6,0,0.,4.8,3.,4.8,1.,4.8,0.,4.8
1979-07-21 15:19:35.590 ,6,0,0.,4.8,3.,4.8,1.,4.8,0.,4.8
1979-07-21 15:19:40.390 ,6,0,0.,4.8,6.,4.8,3.,4.8,1.,4.8
1979-07-21 15:19:45.190 ,6,0,0.,4.8,10.,4.8,2.,4.8,1.,4.8
1979-07-21 15:19:49.990 ,6,0,0.,4.8,3.,4.8,1.,4.8,1.,4.8
1979-07-21 15:19:54.790 ,6,0,0.,4.8,4.,4.8,0.,4.8,2.,4.8
1979-07-21 15:19:59.590 ,5,0,0.,4.8,10.,4.8,2.,4.8,0.,4.8
1979-07-21 15:20:04.390 ,5,0,0.,4.8,2.,4.8,2.,4.8,1.,4.8
1979-07-21 15:20:09.190 ,5,0,0.,4.8,4.,4.8,1.,4.8,1.,4.8
1979-07-21 15:20:13.990 ,5,0,0.,4.8,6.,4.8,3.,4.8,0.,4.8
1979-07-21 15:20:18.790 ,5,0,0.,4.8,1.,4.8,1.,4.8,1.,4.8
1979-07-21 15:20:23.590 ,5,0,0.,4.8,6.,4.8,3.,4.8,0.,4.8
1979-07-21 15:20:28.390 ,5,0,0.,4.8,2.,4.8,3.,4.8,3.,4.8
1979-07-21 15:20:33.190 ,5,0,0.,4.8,6.,4.8,1.,4.8,4.,4.8
1979-07-21 15:20:37.990 ,5,0,0.,4.8,4.,4.8,0.,4.8,1.,4.8
1979-07-21 15:20:42.790 ,5,0,0.,4.8,9.,4.8,2.,4.8,1.,4.8
1979-07-21 15:20:47.590 ,4,0,0.,4.8,2.,4.8,2.,4.8,1.,4.8
1979-07-21 15:20:52.390 ,4,0,0.,4.8,6.,4.8,2.,4.8,0.,4.8
1979-07-21 15:20:57.190 ,4,0,0.,4.8,5.,4.8,1.,4.8,0.,4.8
1979-07-21 15:21:01.990 ,4,0,0.,4.8,1.,4.8,1.,4.8,0.,4.8
1979-07-21 15:21:06.790 ,4,0,0.,4.8,3.,4.8,0.,4.8,1.,4.8
1979-07-21 15:21:11.590 ,4,0,0.,4.8,1.,4.8,3.,4.8,2.,4.8
1979-07-21 15:21:16.390 ,4,0,0.,4.8,3.,4.8,3.,4.8,2.,4.8
1979-07-21 15:21:21.190 ,4,0,0.,4.8,2.,4.8,2.,4.8,1.,4.8
1979-07-21 15:21:25.990 ,4,0,0.,4.8,3.,4.8,4.,4.8,2.,4.8
1979-07-21 15:21:30.790 ,4,0,0.,4.8,5.,4.8,4.,4.8,2.,4.8
1979-07-21 15:21:35.590 ,3,0,0.,4.8,1.,4.8,3.,4.8,0.,4.8
1979-07-21 15:21:40.390 ,3,0,0.,4.8,2.,4.8,3.,4.8,1.,4.8
1979-07-21 15:21:45.190 ,3,0,0.,4.8,3.,4.8,1.,4.8,1.,4.8
1979-07-21 15:21:49.990 ,3,0,0.,4.8,2.,4.8,3.,4.8,2.,4.8
1979-07-21 15:21:54.790 ,3,0,0.,4.8,5.,4.8,1.,4.8,2.,4.8
1979-07-21 15:21:59.590 ,3,0,0.,4.8,4.,4.8,2.,4.8,0.,4.8
1979-07-21 15:22:04.390 ,3,0,0.,4.8,4.,4.8,1.,4.8,0.,4.8
1979-07-21 15:22:09.190 ,3,0,0.,4.8,5.,4.8,3.,4.8,0.,4.8
1979-07-21 15:22:13.990 ,3,0,0.,4.8,6.,4.8,2.,4.8,1.,4.8
1979-07-21 15:22:18.790 ,3,0,0.,4.8,6.,4.8,0.,4.8,2.,4.8
1979-07-21 15:22:23.590 ,2,0,0.,4.8,3.,4.8,10.,4.8,2.,4.8
1979-07-21 15:22:28.390 ,2,0,0.,4.8,3.,4.8,2.,4.8,3.,4.8
1979-07-21 15:22:33.190 ,2,0,0.,4.8,4.,4.8,2.,4.8,1.,4.8
1979-07-21 15:22:37.990 ,2,0,0.,4.8,3.,4.8,2.,4.8,0.,4.8
1979-07-21 15:22:42.790 ,2,0,0.,4.8,2.,4.8,2.,4.8,1.,4.8
1979-07-21 15:22:47.590 ,2,0,0.,4.8,3.,4.8,0.,4.8,1.,4.8
1979-07-21 15:22:52.390 ,2,0,0.,4.8,5.,4.8,2.,4.8,1.,4.8
1979-07-21 15:22:57.190 ,2,0,0.,4.8,2.,4.8,1.,4.8,0.,4.8
1979-07-21 15:23:01.990 ,2,0,0.,4.8,6.,4.8,0.,4.8,2.,4.8
1979-07-21 15:23:06.790 ,2,0,0.,4.8,3.,4.8,0.,4.8,1.,4.8
1979-07-21 15:23:11.590 ,1,0,0.,4.8,4.,4.8,4.,4.8,0.,4.8
1979-07-21 15:23:16.390 ,1,0,0.,4.8,1.,4.8,0.,4.8,2.,4.8
1979-07-21 15:23:21.190 ,1,0,0.,4.8,2.,4.8,0.,4.8,0.,4.8
1979-07-21 15:23:25.990 ,1,0,0.,4.8,3.,4.8,0.,4.8,1.,4.8
1979-07-21 15:23:30.790 ,1,0,0.,4.8,7.,4.8,0.,4.8,0.,4.8
1979-07-21 15:23:35.590 ,1,0,0.,4.8,4.,4.8,2.,4.8,2.,4.8
1979-07-21 15:23:40.390 ,1,0,0.,4.8,5.,4.8,1.,4.8,1.,4.8
1979-07-21 15:23:45.190 ,1,0,0.,4.8,1.,4.8,1.,4.8,1.,4.8
1979-07-21 15:23:49.990 ,1,0,0.,4.8,3.,4.8,1.,4.8,1.,4.8
1979-07-21 15:23:54.790 ,1,0,0.,4.8,5.,4.8,0.,4.8,0.,4.8
1979-07-21 15:23:59.590 ,0,0,0.,4.8,4.,4.8,1.,4.8,1.,4.8
1979-07-21 15:24:04.390 ,0,0,0.,4.8,7.,4.8,3.,4.8,4.,4.8
1979-07-21 15:24:09.190 ,0,0,0.,4.8,2.,4.8,2.,4.8,0.,4.8
1979-07-21 15:24:13.990 ,0,0,0.,4.8,2.,4.8,2.,4.8,0.,4.8
1979-07-21 15:24:18.790 ,0,0,0.,4.8,1.,4.8,3.,4.8,2.,4.8
1979-07-21 15:24:23.590 ,0,0,0.,4.8,1.,4.8,2.,4.8,0.,4.8
1979-07-21 15:24:28.390 ,0,0,0.,4.8,5.,4.8,2.,4.8,1.,4.8
1979-07-21 15:24:33.190 ,0,0,0.,4.8,4.,4.8,3.,4.8,1.,4.8
1979-07-21 15:24:37.990 ,0,0,0.,4.8,4.,4.8,3.,4.8,0.,4.8
1979-07-21 15:24:42.790 ,0,0,0.,4.8,3.,4.8,0.,4.8,1.,4.8
1979-07-21 15:24:47.590 ,0,0,0.,4.8,1.,4.8,1.,4.8,1.,4.8
1979-07-21 15:24:52.390 ,0,0,0.,4.8,3.,4.8,0.,4.8,1.,4.8
1979-07-21 15:24:57.190 ,0,0,0.,4.8,3.,4.8,0.,4.8,2.,4.8
1979-07-21 15:25:01.990 ,0,0,0.,4.8,6.,4.8,3.,4.8,0.,4.8
1979-07-21 15:25:06.790 ,0,0,0.,4.8,4.,4.8,2.,4.8,2.,4.8
1979-07-21 15:25:11.590 ,0,0,0.,4.8,4.,4.8,0.,4.8,2.,4.8
1979-07-21 15:25:16.390 ,0,0,,0,,0,,0,,0
1979-07-21 15:25:21.190 ,0,0,0.,4.8,3.,4.8,0.,4.8,1.,4.8
1979-07-21 15:25:25.990 ,0,0,0.,4.8,2.,4.8,1.,4.8,0.,4.8
1979-07-21 15:25:30.790 ,0,0,0.,4.8,2.,4.8,3.,4.8,0.,4.8
1979-07-21 15:25:35.590 ,1,0,0.,4.8,3.,4.8,1.,4.8,0.,4.8
1979-07-21 15:25:40.390 ,1,0,0.,4.8,1.,4.8,0.,4.8,3.,4.8
1979-07-21 15:25:45.190 ,1,0,0.,4.8,4.,4.8,1.,4.8,1.,4.8
1979-07-21 15:25:49.990 ,1,0,0.,4.8,1.,4.8,2.,4.8,1.,4.8
1979-07-21 15:25:54.790 ,1,0,0.,4.8,4.,4.8,2.,4.8,0.,4.8
1979-07-21 15:25:59.590 ,1,0,0.,4.8,5.,4.8,2.,4.8,0.,4.8
1979-07-21 15:26:04.390 ,1,0,0.,4.8,2.,4.8,1.,4.8,1.,4.8
1979-07-21 15:26:09.190 ,1,0,0.,4.8,1.,4.8,2.,4.8,1.,4.8
1979-07-21 15:26:13.990 ,1,0,0.,4.8,2.,4.8,3.,4.8,2.,4.8
1979-07-21 15:26:18.790 ,1,0,0.,4.8,3.,4.8,1.,4.8,2.,4.8
1979-07-21 15:26:23.590 ,2,0,0.,4.8,3.,4.8,2.,4.8,1.,4.8
1979-07-21 15:26:28.390 ,2,0,0.,4.8,3.,4.8,1.,4.8,2.,4.8
1979-07-21 15:26:33.190 ,2,0,0.,4.8,0.,4.8,1.,4.8,1.,4.8
1979-07-21 15:26:37.990 ,2,0,0.,4.8,2.,4.8,1.,4.8,1.,4.8
1979-07-21 15:26:42.790 ,2,0,0.,4.8,3.,4.8,1.,4.8,1.,4.8
1979-07-21 15:26:47.590 ,2,0,0.,4.8,2.,4.8,0.,4.8,1.,4.8
1979-07-21 15:26:52.390 ,2,0,0.,4.8,5.,4.8,1.,4.8,1.,4.8
1979-07-21 15:26:57.190 ,2,0,0.,4.8,5.,4.8,2.,4.8,2.,4.8
1979-07-21 15:27:01.990 ,2,0,0.,4.8,5.,4.8,1.,4.8,2.,4.8
1979-07-21 15:27:06.790 ,2,0,0.,4.8,6.,4.8,4.,4.8,0.,4.8
1979-07-21 15:27:11.590 ,3,0,0.,4.8,5.,4.8,1.,4.8,1.,4.8
1979-07-21 15:27:16.390 ,3,0,0.,4.8,4.,4.8,3.,4.8,0.,4.8
1979-07-21 15:27:21.190 ,3,0,0.,4.8,3.,4.8,0.,4.8,1.,4.8
1979-07-21 15:27:25.990 ,3,0,0.,4.8,1.,4.8,3.,4.8,1.,4.8
1979-07-21 15:27:30.790 ,3,0,0.,4.8,1.,4.8,0.,4.8,3.,4.8
1979-07-21 15:27:35.590 ,3,0,0.,4.8,1.,4.8,2.,4.8,2.,4.8
1979-07-21 15:27:40.390 ,3,0,0.,4.8,5.,4.8,0.,4.8,1.,4.8
1979-07-21 15:27:45.190 ,3,0,0.,4.8,4.,4.8,2.,4.8,0.,4.8
1979-07-21 15:27:49.990 ,3,0,0.,4.8,7.,4.8,4.,4.8,2.,4.8
1979-07-21 15:27:54.790 ,3,0,0.,4.8,1.,4.8,4.,4.8,2.,4.8
1979-07-21 15:27:59.590 ,4,0,0.,4.8,1.,4.8,0.,4.8,6.,4.8
1979-07-21 15:28:04.390 ,4,0,0.,4.8,1.,4.8,2.,4.8,0.,4.8
1979-07-21 15:28:09.190 ,4,0,0.,4.8,7.,4.8,0.,4.8,1.,4.8
1979-07-21 15:28:13.990 ,4,0,0.,4.8,2.,4.8,1.,4.8,1.,4.8
1979-07-21 15:28:18.790 ,4,0,0.,4.8,9.,4.8,4.,4.8,3.,4.8
1979-07-21 15:28:23.590 ,4,0,0.,4.8,4.,4.8,0.,4.8,0.,4.8
1979-07-21 15:28:28.390 ,4,0,0.,4.8,4.,4.8,0.,4.8,1.,4.8
1979-07-21 15:28:33.190 ,4,0,0.,4.8,5.,4.8,1.,4.8,2.,4.8
1979-07-21 15:28:37.990 ,4,0,0.,4.8,1.,4.8,0.,4.8,1.,4.8
1979-07-21 15:28:42.790 ,4,0,0.,4.8,6.,4.8,0.,4.8,3.,4.8
1979-07-21 15:28:47.590 ,5,0,0.,4.8,5.,4.8,3.,4.8,0.,4.8
1979-07-21 15:28:52.390 ,5,0,0.,4.8,4.,4.8,1.,4.8,0.,4.8
1979-07-21 15:28:57.190 ,5,0,0.,4.8,6.,4.8,3.,4.8,2.,4.8
1979-07-21 15:29:01.990 ,5,0,0.,4.8,6.,4.8,2.,4.8,4.,4.8
1979-07-21 15:29:06.790 ,5,0,0.,4.8,3.,4.8,1.,4.8,0.,4.8
1979-07-21 15:29:11.590 ,5,0,0.,4.8,6.,4.8,1.,4.8,0.,4.8
1979-07-21 15:29:16.390 ,5,0,0.,4.8,3.,4.8,1.,4.8,1.,4.8
1979-07-21 15:29:21.190 ,5,0,0.,4.8,4.,4.8,2.,4.8,1.,4.8
1979-07-21 15:29:25.990 ,5,0,0.,4.8,5.,4.8,1.,4.8,1.,4.8
1979-07-21 15:29:30.790 ,5,0,0.,4.8,2.,4.8,1.,4.8,0.,4.8
1979-07-21 15:29:35.590 ,6,0,0.,4.8,1.,4.8,2.,4.8,0.,4.8
1979-07-21 15:29:40.390 ,6,0,0.,4.8,6.,4.8,1.,4.8,1.,4.8
1979-07-21 15:29:45.190 ,6,0,0.,4.8,2.,4.8,0.,4.8,5.,4.8
1979-07-21 15:29:49.990 ,6,0,0.,4.8,4.,4.8,1.,4.8,0.,4.8
1979-07-21 15:29:54.790 ,6,0,0.,4.8,4.,4.8,3.,4.8,0.,4.8
1979-07-21 15:29:59.590 ,6,0,0.,4.8,2.,4.8,3.,4.8,2.,4.8
1979-07-21 15:30:04.390 ,6,0,0.,4.8,2.,4.8,2.,4.8,0.,4.8
1979-07-21 15:30:09.190 ,6,0,0.,4.8,4.,4.8,1.,4.8,3.,4.8
1979-07-21 15:30:13.990 ,6,0,0.,4.8,3.,4.8,1.,4.8,1.,4.8
1979-07-21 15:30:18.790 ,6,0,0.,4.8,1.,4.8,0.,4.8,1.,4.8
1979-07-21 15:30:23.590 ,7,0,0.,4.8,3.,4.8,2.,4.8,1.,4.8
1979-07-21 15:30:28.390 ,7,0,0.,4.8,6.,4.8,3.,4.8,2.,4.8
1979-07-21 15:30:33.190 ,7,0,0.,4.8,0.,4.8,0.,4.8,0.,4.8
1979-07-21 15:30:37.990 ,7,0,0.,4.8,0.,4.8,1.,4.8,0.,4.8
1979-07-21 15:30:42.790 ,7,0,0.,4.8,1.,4.8,0.,4.8,1.,4.8
1979-07-21 15:30:47.590 ,7,0,0.,4.8,0.,4.8,0.,4.8,0.,4.8
1979-07-21 15:30:52.390 ,7,0,0.,4.8,0.,4.8,0.,4.8,0.,4.8
1979-07-21 15:30:57.190 ,7,0,0.,4.8,0.,4.8,0.,4.8,0.,4.8
1979-07-21 15:31:01.990 ,7,0,0.,4.8,0.,4.8,0.,4.8,0.,4.8
1979-07-21 15:31:06.790 ,7,0,0.,4.8,0.,4.8,0.,4.8,0.,4.8
1979-07-21 15:31:11.590 ,3,1,0.,4.8,1.,4.8,1.,4.8,2.,4.8
1979-07-21 15:31:16.390 ,3,1,0.,4.8,4.,4.8,3.,4.8,1.,4.8
1979-07-21 15:31:21.190 ,3,1,0.,4.8,5.,4.8,3.,4.8,0.,4.8
1979-07-21 15:31:25.990 ,3,1,0.,4.8,4.,4.8,3.,4.8,1.,4.8
1979-07-21 15:31:30.790 ,3,1,0.,4.8,2.,4.8,1.,4.8,1.,4.8
1979-07-21 15:31:35.590 ,0,1,0.,4.8,1.,4.8,0.,4.8,1.,4.8
1979-07-21 15:31:40.390 ,0,1,0.,4.8,5.,4.8,5.,4.8,1.,4.8
1979-07-21 15:31:45.190 ,0,1,0.,4.8,5.,4.8,1.,4.8,2.,4.8
1979-07-21 15:31:49.990 ,0,1,0.,4.8,0.,4.8,4.,4.8,1.,4.8
1979-07-21 15:31:54.790 ,0,1,0.,4.8,5.,4.8,2.,4.8,1.,4.8
1979-07-21 15:31:59.590 ,4,1,0.,4.8,6.,4.8,0.,4.8,3.,4.8
1979-07-21 15:32:04.390 ,4,1,0.,4.8,3.,4.8,3.,4.8,1.,4.8
1979-07-21 15:32:09.190 ,4,1,0.,4.8,5.,4.8,2.,4.8,0.,4.8
1979-07-21 15:32:13.990 ,4,1,0.,4.8,3.,4.8,2.,4.8,1.,4.8
1979-07-21 15:32:18.790 ,4,1,0.,4.8,3.,4.8,0.,4.8,0.,4.8
1979-07-21 15:32:23.590 ,7,1,0.,4.8,2.,4.8,2.,4.8,3.,4.8
1979-07-21 15:32:28.390 ,7,1,0.,4.8,5.,4.8,2.,4.8,0.,4.8
1979-07-21 15:32:33.190 ,7,1,0.,4.8,4.,4.8,3.,4.8,0.,4.8
1979-07-21 15:32:37.990 ,7,1,0.,4.8,0.,4.8,0.,4.8,1.,4.8
1979-07-21 15:32:42.790 ,7,1,0.,4.8,0.,4.8,0.,4.8,0.,4.8
1979-07-21 15:32:47.590 ,3,1,0.,4.8,2.,4.8,0.,4.8,0.,4.8
1979-07-21 15:32:52.390 ,3,1,0.,4.8,2.,4.8,3.,4.8,1.,4.8
1979-07-21 15:32:57.190 ,3,1,0.,4.8,4.,4.8,1.,4.8,1.,4.8
1979-07-21 15:33:01.990 ,3,1,0.,4.8,3.,4.8,1.,4.8,3.,4.8
1979-07-21 15:33:06.790 ,3,1,0.,4.8,6.,4.8,1.,4.8,1.,4.8
1979-07-21 15:33:11.590 ,0,1,0.,4.8,4.,4.8,1.,4.8,3.,4.8
1979-07-21 15:33:16.390 ,0,1,0.,4.8,0.,4.8,4.,4.8,1.,4.8